Zurück zum Katalog

FENGYUN 1C DEB

AktivPO
NORAD 31183·DEBRIS·🇨🇳 China

Gestartet May 10, 1999 von Taiyuan Satellite Launch Center

Loading…

Nächste Überflüge (nächste 24 Stunden)

TLE

AktuellSource: Space-Track

Epoche: Sep 14, 2026, 12:34 UTC

1 31183U 99025BJM 26257.52425111  .00003080  00000-0  75206-3 0  9998
2 31183  99.0484 267.2513 0045482   1.9177 150.6847 14.52806095 14710

Verfolge FENGYUN 1C DEB in Echtzeit mit AllMySat

Download on the App Store